Flag for U.S.A. Weather past 2 weeks in Cedar Rapids, Iowa, U.S.A.

Now
68 °F

Sunny.


Feels Like: 68 °F
Forecast: 48 / 69 °F
Wind: 14 mph from Northwest

Location: Cedar Rapids Municipal Airport

Current Time: Oct 25, 2014 at 4:36:23 PM

Latest Report: Oct 25, 2014 at 3:52 PM


Visibility: 10 mi

Pressure: 30.03 "Hg

Humidity: 31%

Dew point: 36 °F

Location of Cedar RapidsLocation

Historic Weather in Cedar Rapids — Graph

°F

Cedar Rapids temperature yesterday

Maximum temperature yesterday: 64 °F (at 3:52 PM)
Minimum temperature yesterday: 42 °F (at 12:52 AM)
Average temperature yesterday: 52 °F

Past Weeks' High & Low Weather Summary

 TemperatureHumidityPressure
High70 °F (Oct 16, 3:52 PM)100% (Oct 12, 5:52 AM)30.32 "Hg (Oct 12, 5:52 AM)
Low33 °F (Oct 19, 5:59 AM)29% (Oct 25, 2:52 PM)28.01 "Hg (Oct 17, 12:20 AM)
Average51 °F82%29.95 "Hg
* Reported Oct 10 2:52 PM — Oct 25 2:52 PM, Cedar Rapids, Weather by CustomWeather, © 2014

Note: Actual official high and low records may vary slightly from our data, if they occured in-between our weather recording intervals... More about our weather records

Advertising

Cedar Rapids weather history for previous 24 hours

 ConditionsComfort  
Time TempWeatherWind HumidityBarometerVisibility
2:52 PM
Oct 25
69 °FSunny.13 mph29%30.03 "Hg10 mi
1:52 PM68 °FSunny.10 mph33%30.04 "Hg10 mi
12:52 PM66 °FSunny.12 mph40%30.06 "Hg10 mi
11:52 AM65 °FSunny.15 mph42%30.07 "Hg10 mi
10:52 AM62 °FSunny.8 mph60%30.06 "Hg10 mi
9:52 AM57 °FSunny.10 mph78%30.05 "Hg10 mi
8:52 AM51 °FSunny.7 mph92%30.04 "Hg8 mi
7:52 AM46 °FFog.7 mph100%30.02 "Hg6 mi
6:52 AM46 °FFog.8 mph100%29.99 "Hg6 mi
5:52 AM46 °FClear.9 mph100%29.98 "Hg5 mi
4:52 AM47 °FFog.6 mph100%29.96 "Hg0 mi
3:52 AM51 °FFog.5 mph100%29.95 "Hg0 mi
2:52 AM52 °FFog.6 mph100%29.96 "Hg0 mi
1:52 AM54 °FFog.7 mph100%29.95 "Hg0 mi
12:52 AM49 °FFog.No wind100%29.94 "Hg0 mi
11:52 PM
Oct 24
49 °FFog.No wind100%29.95 "Hg0 mi
10:52 PM53 °FFog.5 mph100%29.95 "Hg1 mi
9:52 PM54 °FFog.5 mph100%29.94 "Hg1 mi
8:52 PM56 °FFog.6 mph100%29.94 "Hg2 mi
7:52 PM57 °FFog.5 mph100%29.95 "Hg2 mi
6:52 PM58 °FFog.5 mph100%29.93 "Hg2 mi
5:52 PM60 °FFog.7 mph100%29.92 "Hg2 mi
4:52 PM64 °FLight rain. Overcast.12 mph84%29.90 "Hg5 mi
Weather by CustomWeather, © 2014

See weather overviewHow to use our weather pages